ROMMA est une association bénévole à but non lucratif. Votre soutien est indispensable : ADHERER à ROMMA ou FAIRE un DON

Val-d'Isère - (73, Savoie)

Haute-Maurienne (1850 m)   Longitude: 6° 58' 52'' E   Latitude: 45° 26' 53'' N Station partenaire n°93
 

Détail journalier du     <<     >>

Température Precipitation Humidité Vent Dir Rafale Dir. rafale Ensol.
Heure (°C) (mm) (%) (km/h) (km/h) (min)
01:00 -1.10934O11O0
02:00 -1.20944O11OSO0
03:00 -1.40955O11O0
04:00 -1.10942O5O0
05:00 -1.50954O11OSO0
06:00 -1.50955OSO10O0
07:00 -1.60955O11OSO0
08:00 -1.70956OSO13OSO0
09:00 -0.80925O11O0
10:00 0.40.2872SSE6SSE0
11:00 0.70.4669E19E30
12:00 2.00647ESE16ESE60
13:00 2.40647ESE16ESE60
14:00 4.10.2588E18E60
15:00 4.205611E18ESE60
16:00 5.30549E18ESE60
17:00 5.005210ESE19ESE60
18:00 3.30548ESE16E30
19:00 2.60615E16SSE0
20:00 1.50639E15ENE0
21:00 1.206411E18E0
22:00 1.20668E18ESE0
23:00 0.90686E13ESE0
minuit -0.10696ENE16ESE0

Graphique du 08-04-2019

 

Serveur OMMA